Location: Unspecified
(29.9680°N, 0.0000°E)
Time: 08:57:42
(UTC+00:00)

Explorer 7 - Pass Details

Date: 28 June 2019
Orbit: 485 x 680 km, 50.3° (Epoch: 16 July)

Event Time Altitude Azimuth Distance (km) Brightness Sun altitude
Rises 05:46:07 0° 238° (WSW) 2,594 9.6 7.9°
Reaches altitude 10° 05:48:19 10° 245° (WSW) 1,735 8.8 8.4°
Maximum altitude 05:52:07 47° 320° (NW) 717 7.4 9.1°
Drops below altitude 10° 05:56:10 10° 34° (NE) 1,848 10.6 10.0°
Sets 05:58:34 0° 41° (NE) 2,784 11.6 10.4°
